Date,TemperatureHighF,TemperatureAvgF,TemperatureLowF,DewpointHighF,DewpointAvgF,DewpointLowF,HumidityHigh,HumidityAvg,HumidityLow,PressureMaxIn,PressureMinIn,WindSpeedMaxMPH,WindSpeedAvgMPH,GustSpeedMaxMPH,PrecipitationSumIn
2013-1-7,31,20,11,3,-4,-11,35,33,30,30.02,29.99,10,2,10,0.00
2013-1-8,30,14,4,4,-9,-18,40,35,31,30.26,30.02,13,1,13,0.00
2013-1-9,34,16,5,8,-5,-14,49,38,31,30.32,30.23,8,1,8,0.00
2013-1-10,37,21,8,15,0,-12,56,39,22,30.14,29.67,20,4,23,0.00
2013-1-11,27,13,-4,15,-7,-26,71,40,29,29.81,29.49,22,5,30,0.00
2013-1-12,7,-4,-16,-17,-26,-37,32,32,32,29.81,29.75,11,4,12,0.00
2013-1-13,8,-5,-16,-16,-28,-38,32,32,32,29.84,29.75,11,3,11,0.00
2013-1-14,9,-3,-10,-15,-25,-32,32,32,32,29.96,29.81,7,0,10,0.00
2013-1-15,18,0,-17,3,-20,-38,52,38,32,30.23,29.96,9,1,9,0.00
2013-1-16,29,9,-4,9,-8,-19,59,47,41,30.35,30.20,9,1,9,0.00
2013-1-17,35,15,3,14,-2,-13,66,47,40,30.37,30.29,10,1,12,0.00
2013-1-18,37,16,4,14,-1,-9,58,48,34,30.35,30.23,10,1,12,0.00
2013-1-19,37,17,5,9,-4,-13,44,38,30,30.35,30.26,14,2,15,0.00
2013-1-20,37,15,2,8,-8,-18,41,35,25,30.32,30.20,13,1,14,0.00
2013-1-21,45,27,10,6,-2,-13,42,29,20,30.29,30.23,13,2,13,0.00
2013-1-22,42,20,7,6,-6,-15,39,31,21,30.35,30.26,13,3,13,0.00
2013-1-23,40,19,5,3,-8,-18,35,29,21,30.37,30.29,11,0,11,0.00
2013-1-24,40,26,14,14,4,-6,51,39,32,30.32,30.23,10,1,12,0.00
2013-1-25,43,32,24,22,16,10,56,50,41,30.29,30.20,8,1,8,0.00
2013-1-26,35,30,24,29,21,11,84,70,54,30.23,29.90,4,0,5,0.00
2013-1-27,40,31,26,31,20,9,84,65,33,29.96,29.87,13,1,13,0.00
2013-1-28,30,25,17,23,18,5,82,74,55,29.90,29.72,8,1,10,0.00
2013-1-29,17,10,4,8,0,-6,67,63,60,29.87,29.70,17,2,19,0.00
2013-1-30,22,15,5,10,3,-6,62,58,48,30.08,29.87,14,2,17,0.00
2013-1-31,36,22,10,20,11,0,71,61,52,30.20,30.05,8,1,9,0.00
2013-2-1,36,18,4,12,1,-5,65,50,25,30.26,30.11,23,2,27,0.00
2013-2-2,36,18,4,14,0,-12,47,44,39,30.32,30.26,12,2,13,0.00
2013-2-3,35,20,8,12,2,-7,53,45,35,30.26,30.02,8,1,10,0.00
2013-2-4,39,19,6,16,2,-6,56,48,31,30.08,29.99,14,3,14,0.00
2013-2-5,44,22,8,15,1,-10,49,41,30,30.11,29.99,11,2,11,0.00
2013-2-6,38,22,9,16,4,-6,60,47,30,30.02,29.90,11,1,11,0.00
2013-2-7,38,22,8,19,7,-6,61,52,42,30.08,30.02,9,2,10,0.00
2013-2-8,34,28,14,19,8,-2,67,43,32,30.02,29.70,27,8,29,0.00
2013-2-9,30,23,15,15,9,2,74,56,32,29.70,29.52,21,3,22,0.00
2013-2-10,23,12,1,9,0,-11,66,58,49,29.75,29.64,9,1,10,0.00
2013-2-11,23,13,0,10,1,-14,64,59,48,29.87,29.72,12,1,12,0.00
2013-2-12,32,9,-6,12,-6,-19,52,50,43,29.96,29.84,10,3,11,0.00
2013-2-13,37,18,7,18,3,-7,57,51,41,29.99,29.90,10,2,12,0.00
2013-2-14,36,17,6,14,0,-8,59,49,39,30.02,29.87,11,3,12,0.00
2013-2-15,30,15,4,4,-5,-12,54,40,30,30.14,30.02,16,3,17,0.00
2013-2-16,44,21,5,9,-6,-16,45,31,20,30.11,29.96,12,2,16,0.00
2013-2-17,41,22,7,11,-5,-15,56,31,20,29.96,29.61,13,3,14,0.00
2013-2-18,37,20,8,14,1,-10,58,45,28,29.87,29.64,10,2,10,0.00
2013-2-19,33,12,-2,5,-8,-19,44,40,30,29.84,29.58,8,0,10,0.00
2013-2-20,27,20,13,16,10,-5,80,66,44,29.58,29.40,8,1,8,0.00
2013-2-21,30,19,8,20,12,2,79,74,61,29.64,29.43,15,2,17,0.00
2013-2-22,25,11,-1,14,1,-11,74,63,47,29.72,29.58,11,3,15,0.00
2013-2-23,28,11,-4,13,-1,-17,72,57,51,29.72,29.46,9,1,10,0.00
2013-2-24,21,13,3,11,3,-9,76,62,50,29.70,29.46,9,1,10,0.00
2013-2-25,36,14,-3,22,5,-9,75,68,53,29.75,29.64,13,2,13,0.00
2013-2-26,23,12,0,8,0,-9,64,58,43,29.75,29.52,13,2,17,0.00
2013-2-27,34,10,-6,14,-5,-17,58,51,40,29.90,29.75,11,4,13,0.00
2013-2-28,36,14,-5,9,-6,-20,46,41,30,29.99,29.90,13,3,13,0.00
2013-3-1,45,30,22,18,10,2,56,44,30,30.08,29.96,13,2,13,0.00
2013-3-2,51,28,13,18,8,1,61,44,21,30.11,29.93,12,2,12,0.00
2013-3-3,44,31,20,27,10,2,87,44,23,29.93,29.61,15,3,20,0.00
2013-3-4,37,29,15,28,19,1,87,68,38,29.84,29.58,13,2,17,0.00
2013-3-5,42,20,4,18,2,-9,56,47,31,29.93,29.84,9,1,10,0.00
2013-3-6,52,28,10,11,3,-4,59,37,18,29.87,29.70,13,2,16,0.00
2013-3-7,54,34,20,11,5,0,46,31,18,29.75,29.70,17,2,17,0.00
2013-3-8,41,29,21,25,10,2,76,45,26,29.72,29.46,22,4,22,0.00
2013-3-9,29,25,21,14,8,4,61,49,39,29.64,29.40,12,2,14,0.00
2013-3-10,45,25,10,13,1,-6,48,37,22,29.87,29.64,9,1,10,0.00
2013-3-11,45,27,11,11,1,-7,47,34,20,29.87,29.72,15,2,15,0.00
2013-3-12,54,34,22,12,7,2,51,33,18,29.96,29.78,11,2,14,0.00
2013-3-13,58,30,19,13,4,0,44,35,17,30.05,29.93,10,2,11,0.00
2013-3-14,62,37,22,16,8,2,44,31,16,30.05,29.99,12,3,14,0.00
2013-3-15,61,41,27,16,8,5,41,28,16,29.99,29.75,12,4,13,0.00
2013-3-16,43,35,27,29,14,6,63,43,30,29.75,29.61,12,2,17,0.00
2013-3-17,41,33,23,27,10,-2,76,42,21,29.64,29.49,16,3,23,0.00
2013-3-18,44,32,27,6,0,-4,33,25,20,29.70,29.61,15,3,21,0.00
2013-3-19,48,34,26,7,1,-6,31,24,19,29.84,29.67,14,2,18,0.00
2013-3-20,43,28,16,25,4,-7,69,38,24,29.87,29.64,15,2,15,0.00
2013-3-21,38,32,23,27,17,2,81,55,30,29.64,29.43,20,1,22,0.00
2013-3-22,44,28,14,9,1,-4,47,33,20,29.58,29.37,21,4,26,0.00
2013-3-23,24,16,6,5,-3,-9,60,44,28,29.67,29.40,13,2,13,0.00
2013-3-24,18,4,0,1,-10,-12,56,54,28,29.67,29.58,15,2,18,0.00
2013-4-1,37,36,36,2,1,1,22,22,22,29.52,29.52,0,0,0,0.00
2013-4-2,44,34,25,20,8,-1,54,34,20,29.61,29.49,14,2,15,0.00
2013-4-3,56,37,28,17,12,3,58,38,17,29.72,29.58,13,2,13,0.00
2013-4-4,63,41,24,16,9,6,48,29,16,29.75,29.64,13,4,13,0.00
2013-4-5,57,44,34,26,11,2,61,28,17,29.64,29.43,16,4,20,0.00
2013-4-6,46,35,28,26,20,6,70,56,22,29.52,29.43,13,1,14,0.00
2013-4-7,52,40,33,24,17,10,68,42,21,29.43,29.22,15,2,19,0.00
2013-4-8,45,35,28,31,18,6,86,54,27,29.22,28.87,26,3,29,0.00
2013-4-9,33,30,20,28,24,13,86,80,73,29.16,28.90,0,0,0,0.00
2013-4-10,36,22,14,25,13,5,73,66,53,29.22,29.13,12,1,19,0.00
2013-4-11,42,28,15,25,15,4,70,59,39,29.22,29.13,12,2,13,0.00
2013-4-12,48,33,20,24,14,9,68,49,28,29.22,29.13,15,4,17,0.00
2013-4-13,50,37,22,26,10,6,62,35,19,29.19,28.87,28,6,28,0.00
2013-4-14,40,34,27,30,23,14,88,66,39,28.96,28.87,15,2,18,0.00
2013-4-15,53,41,33,28,19,8,75,44,19,28.90,28.81,26,6,26,0.00
2013-4-16,57,44,33,17,9,4,52,24,17,28.90,28.78,30,10,33,0.00
2013-4-17,43,34,17,21,10,-7,64,40,20,28.99,28.81,20,7,23,0.00
2013-4-18,35,21,13,0,-6,-9,37,30,22,29.25,28.99,14,3,18,0.00
2013-4-19,48,28,11,8,0,-11,45,30,19,29.25,29.10,15,3,17,0.00
2013-4-20,48,34,26,25,14,6,68,43,27,29.16,29.05,14,2,18,0.00
2013-4-21,56,37,23,23,12,3,67,41,17,29.19,29.13,15,2,17,0.00
2013-4-22,59,44,34,28,16,7,75,38,17,29.16,28.96,23,3,26,0.00
2013-4-23,42,34,24,16,6,-5,54,32,23,29.10,28.93,22,4,26,0.00
2013-4-24,55,35,22,12,3,-4,40,26,18,29.22,29.08,15,3,15,0.00
2013-4-25,57,39,26,20,10,2,42,31,17,29.19,29.02,18,3,21,0.00
2013-4-26,60,43,29,17,10,1,48,29,17,29.31,29.10,11,3,13,0.00
2013-4-27,65,43,26,17,9,0,43,26,15,29.31,29.22,16,4,16,0.00
2013-4-28,71,47,28,20,10,2,41,24,14,29.25,29.10,14,5,14,0.00
2013-4-29,69,51,33,20,13,5,41,23,15,29.13,28.96,17,4,19,0.00
2013-4-30,67,53,38,18,13,8,30,21,15,28.99,28.90,25,4,28,0.00
2013-5-1,55,46,36,23,14,9,52,30,18,29.10,28.90,16,3,19,0.00
2013-5-2,58,37,21,14,3,-8,33,24,17,29.34,29.25,10,2,13,0.00
2013-5-3,67,42,21,18,5,-6,33,23,15,29.31,29.08,13,2,13,0.00
2013-5-4,55,41,27,29,9,-1,54,28,18,29.08,28.96,13,3,13,0.00
2013-5-5,56,45,38,40,14,4,89,31,18,29.08,29.02,16,5,20,0.00
2013-5-6,57,44,38,28,21,17,56,41,23,29.08,28.93,15,2,17,0.00
2013-5-7,54,42,33,25,20,14,68,45,23,29.08,28.99,17,2,20,0.00
2013-5-8,40,35,31,29,23,19,86,62,47,29.05,28.96,15,1,15,0.00
2013-5-12,66,51,35,22,18,13,52,29,18,29.28,29.16,13,4,13,0.00
2013-5-13,70,50,35,24,20,15,52,33,17,29.28,29.16,14,4,14,0.00
2013-5-14,68,50,36,32,23,18,55,37,17,29.22,29.08,15,4,20,0.00
2013-5-15,62,48,39,35,27,23,60,45,24,29.13,28.99,15,3,19,0.00
2013-5-16,72,62,50,24,16,9,24,17,14,29.02,28.96,13,4,15,0.00
2013-5-17,65,45,37,17,11,6,31,25,16,28.99,28.93,15,4,17,0.00
2013-5-22,64,57,49,17,13,9,19,17,16,28.93,28.87,8,2,9,0.00
2013-5-23,73,56,38,21,14,7,32,20,14,28.99,28.84,29,6,29,0.00
2013-5-24,74,57,40,21,12,4,21,17,13,29.05,28.96,26,4,27,0.00
2013-5-25,76,56,37,26,13,3,29,18,13,29.05,28.96,20,5,22,0.00
2013-5-26,76,56,38,26,13,2,26,18,13,29.02,28.90,15,5,19,0.00
2013-5-27,71,53,36,20,11,1,24,18,14,28.99,28.81,13,4,22,0.00
2013-5-28,66,51,36,17,10,1,26,19,15,28.87,28.63,27,6,27,0.00
2013-5-29,46,45,44,7,6,6,20,20,19,28.69,28.66,0,0,0,0.00
2013-5-30,67,59,50,18,14,9,19,17,15,28.84,28.72,14,4,25,0.00
2013-5-31,68,52,40,19,11,5,30,20,15,28.93,28.78,21,3,22,0.00
2013-6-1,76,52,31,26,10,-2,25,19,13,28.96,28.84,14,2,14,0.00
2013-6-2,74,52,34,21,11,0,25,19,13,28.96,28.81,15,3,19,0.00
2013-6-3,72,58,43,26,16,10,29,20,14,28.87,28.72,24,4,24,0.00
2013-6-4,78,58,41,27,18,11,40,22,13,28.84,28.75,15,4,16,0.00
2013-6-5,80,57,40,28,18,10,39,23,13,28.81,26.18,15,4,22,0.00
2013-6-6,57,56,55,16,13,11,20,18,17,26.18,26.18,6,2,8,0.00
2013-6-7,78,59,41,27,18,10,36,21,13,26.18,26.18,20,4,20,0.00
2013-6-8,86,63,44,30,20,10,34,20,13,26.18,26.18,18,3,18,0.00
2013-6-9,88,58,45,32,18,11,29,21,13,26.18,26.18,12,2,13,0.00
2013-6-10,64,63,61,17,16,14,16,16,16,26.18,26.18,6,2,8,0.00
2013-6-11,86,66,50,30,18,9,19,16,13,26.18,26.18,17,4,36,0.00
2013-6-12,89,65,45,32,18,6,25,17,13,26.18,26.18,19,5,19,0.00
2013-6-13,84,65,49,30,19,9,35,17,13,26.18,26.18,22,5,23,0.00
2013-6-14,81,64,48,29,23,11,38,22,13,26.18,26.18,17,4,19,0.00
2013-6-15,74,58,40,28,14,4,26,17,14,26.18,26.18,16,4,21,0.00
2013-6-16,74,58,43,36,20,11,38,23,14,30.32,26.18,20,3,22,0.00
2013-6-17,75,58,43,25,19,13,39,24,13,30.32,30.26,17,4,22,0.00
2013-6-18,79,61,43,27,19,13,34,21,13,30.29,30.14,20,5,22,0.00
2013-6-19,81,63,43,29,16,4,23,16,13,30.17,30.08,26,6,30,0.00
2013-6-20,82,62,44,29,16,6,20,16,13,30.20,30.14,28,4,28,0.00
2013-6-21,84,63,42,29,17,4,23,17,13,30.23,30.17,20,5,20,0.00
2013-6-22,81,61,42,28,16,4,26,17,13,30.23,30.14,14,4,21,0.00
2013-6-23,78,60,41,27,14,4,26,17,13,30.23,30.11,18,5,22,0.00
2013-6-24,76,60,47,26,14,7,19,17,13,30.20,30.14,21,4,23,0.00
2013-6-25,85,65,47,30,17,7,19,16,13,30.32,30.17,14,3,18,0.00
2013-6-26,93,68,45,33,22,11,36,19,12,30.40,30.32,10,3,11,0.00
2013-6-27,91,65,50,32,22,14,31,20,12,30.49,30.40,26,4,26,0.00
2013-6-28,85,64,50,30,25,21,37,24,13,30.46,30.37,20,4,20,0.00
2013-6-29,84,64,53,46,28,23,53,27,14,30.43,30.29,13,3,17,0.00
2013-6-30,84,63,47,32,28,22,51,30,13,30.37,30.26,12,3,14,0.00
2013-7-1,90,66,46,32,25,16,44,24,12,30.40,30.32,12,3,20,0.00
2013-7-2,90,68,51,32,24,15,33,20,12,30.37,30.26,15,3,15,0.00
2013-7-3,88,64,48,32,22,16,35,22,13,30.32,30.23,13,3,14,0.00
2013-7-4,84,67,51,30,23,15,34,19,14,30.29,30.20,13,2,13,0.00
2013-7-5,85,70,60,33,26,20,34,21,13,30.23,30.17,13,3,16,0.00
2013-7-6,81,66,56,30,26,22,36,23,14,30.29,30.20,11,3,14,0.00
2013-7-7,79,66,55,36,30,26,39,27,17,30.35,30.26,12,2,12,0.00
2013-7-8,86,66,51,38,31,22,60,31,13,30.40,30.32,13,3,17,0.00
2013-7-9,87,69,51,30,27,16,44,23,13,30.43,30.37,9,3,9,0.00
2013-7-10,81,67,56,34,25,16,28,21,14,30.40,30.29,16,4,16,0.00
2013-7-11,84,64,51,47,32,25,75,34,14,30.37,30.26,14,3,15,0.00
2013-7-12,68,57,50,52,46,36,85,68,35,30.35,30.26,10,2,11,0.00
2013-7-13,76,60,49,50,43,29,85,59,24,30.37,30.32,12,2,15,0.00
2013-7-14,68,58,52,54,45,36,85,66,31,30.37,30.29,10,2,10,0.00
2013-7-15,67,55,48,54,47,36,90,75,31,30.32,30.23,10,1,10,0.00
2013-7-16,77,60,49,53,41,26,92,58,22,30.35,30.23,10,2,11,0.00
2013-7-17,86,63,51,51,36,28,75,41,13,30.40,30.29,11,2,13,0.00
2013-7-18,68,55,49,46,42,35,76,64,30,30.40,30.32,10,1,14,0.00
2013-7-19,72,54,46,50,43,36,91,69,28,30.37,30.26,10,2,11,0.00
2013-7-20,81,60,48,52,39,25,92,57,14,30.32,30.17,8,2,10,0.00
2013-7-21,86,65,50,36,30,20,50,30,13,30.26,30.20,9,3,10,0.00
2013-7-22,84,64,51,32,29,24,45,29,13,30.32,30.23,13,3,14,0.00
2013-7-23,85,72,56,33,28,23,36,20,13,30.43,30.26,13,2,13,0.00
2013-7-24,82,63,55,43,33,26,59,34,17,30.37,30.32,13,4,17,0.00
2013-7-25,85,65,52,41,33,23,61,36,13,30.37,30.29,13,3,15,0.00
2013-7-26,86,65,50,34,28,16,48,28,13,30.40,30.35,16,3,16,0.00
2013-7-27,74,58,54,49,36,20,71,46,18,30.37,30.26,13,1,15,0.00
2013-7-28,62,56,52,52,44,36,85,67,40,30.26,30.17,12,1,12,0.00
2013-7-29,68,56,48,46,38,28,81,55,24,30.37,30.20,16,2,16,0.00
2013-7-30,81,59,43,42,31,20,77,43,15,30.46,30.37,17,3,17,0.00
2013-7-31,86,63,46,31,27,21,55,30,13,30.46,30.35,10,3,10,0.00
2013-8-1,63,57,53,48,37,24,71,48,28,30.40,30.32,9,2,9,0.00
2013-8-2,78,59,47,50,40,29,86,55,21,30.35,30.26,13,3,17,0.00
2013-8-3,71,58,50,49,39,32,82,52,25,30.37,30.32,10,2,10,0.00
2013-8-4,75,56,44,49,39,31,85,58,22,30.37,30.32,11,2,11,0.00
2013-8-5,73,58,50,51,39,33,70,50,27,30.35,30.29,15,2,15,0.00
2013-8-6,68,55,47,42,38,28,70,53,24,30.32,30.26,13,3,14,0.00
2013-8-7,56,52,49,52,42,36,86,67,55,30.29,30.23,8,1,11,0.00
2013-8-8,57,50,48,45,41,34,84,73,46,30.32,30.20,8,1,13,0.00
2013-8-9,68,52,40,47,36,26,87,61,22,30.35,30.26,13,2,13,0.00
2013-8-10,64,48,42,44,36,24,86,66,25,30.43,30.32,13,3,17,0.00
2013-8-11,71,49,38,44,37,27,89,69,23,30.37,30.29,15,2,16,0.00
2013-8-12,65,50,42,44,38,33,84,66,30,30.37,30.29,26,3,26,0.00
2013-8-13,76,55,41,42,31,21,79,48,15,30.37,30.32,13,3,13,0.00
2013-8-14,80,58,42,33,26,18,60,33,15,30.35,30.29,10,4,10,0.00
2013-8-15,81,59,42,30,24,18,51,30,14,30.37,30.32,10,4,10,0.00
2013-8-16,79,60,43,28,24,16,48,28,15,30.37,30.32,10,3,10,0.00
2013-8-17,78,61,48,32,25,20,39,27,15,30.37,30.29,10,3,13,0.00
2013-8-18,68,55,49,49,36,26,75,49,24,30.40,30.32,11,3,15,0.00
2013-8-19,52,51,50,42,42,41,72,72,71,30.37,30.37,8,4,8,0.00
2013-8-21,55,54,52,35,35,34,52,48,46,30.37,30.37,8,4,8,0.00
2013-8-22,80,61,50,39,33,25,62,39,15,30.37,30.26,17,2,17,0.00
2013-8-23,82,62,51,36,31,24,48,33,14,30.32,30.20,16,3,18,0.00
2013-8-24,66,58,52,42,34,25,58,40,28,30.35,30.26,10,1,10,0.00
2013-8-25,65,58,52,46,37,33,62,46,31,30.37,30.32,17,4,20,0.00
2013-8-26,76,61,54,44,39,31,68,46,21,30.37,30.32,8,1,9,0.00
2013-8-27,81,60,48,41,34,24,66,42,14,30.37,30.26,12,2,13,0.00
2013-8-28,85,61,49,40,34,27,61,40,13,30.37,30.29,17,4,17,0.00
2013-8-29,71,59,48,38,34,29,66,42,22,30.40,30.35,18,4,19,0.00
2013-8-30,80,64,55,40,34,24,52,35,15,30.40,30.32,15,2,15,0.00
2013-8-31,77,60,51,38,33,28,50,37,18,30.35,30.29,12,2,17,0.00
2013-9-1,70,56,46,47,37,31,77,50,25,30.35,30.26,13,2,13,0.00
2013-9-2,75,57,50,48,44,33,81,65,23,30.35,30.29,13,3,15,0.00
2013-9-3,74,56,47,48,41,29,81,61,22,30.37,30.32,10,4,11,0.00
2013-9-4,71,57,51,44,40,33,70,55,26,30.40,30.35,10,2,11,0.00
2013-9-5,80,62,52,44,36,24,71,44,15,30.40,30.32,11,2,13,0.00
2013-9-6,70,54,47,34,30,26,50,41,20,30.40,30.35,8,3,9,0.00
2013-9-7,78,58,47,46,33,27,54,41,18,30.35,30.26,8,3,10,0.00
2013-9-8,78,61,49,38,33,24,62,38,15,30.29,30.14,14,4,15,0.00
2013-9-9,64,55,48,49,38,33,68,53,37,30.20,30.14,8,1,9,0.00
2013-9-10,56,52,50,49,44,37,86,74,51,30.23,30.17,14,1,15,0.00
2013-9-11,69,56,49,50,38,27,84,55,23,30.29,30.20,15,2,17,0.00
2013-9-12,70,57,47,48,40,28,84,58,23,30.29,30.20,13,2,13,0.00
2013-9-13,62,51,44,53,43,35,92,76,39,30.26,30.11,9,1,10,0.00
2013-9-14,57,50,46,45,39,30,86,65,37,30.20,30.11,17,2,20,0.00
2013-9-15,55,49,44,51,40,32,86,73,44,30.29,30.17,10,1,13,0.00
2013-9-16,66,48,39,48,37,33,87,68,33,30.29,30.23,15,2,15,0.00
2013-9-17,68,52,40,41,32,25,77,50,22,30.29,30.11,17,4,17,0.00
2013-9-18,66,53,47,40,34,25,74,51,22,30.17,30.08,17,3,20,0.00
2013-9-19,68,51,40,44,32,21,81,53,20,30.23,30.11,14,3,16,0.00
2013-9-20,74,51,36,28,25,21,63,40,16,30.26,30.17,8,2,10,0.00
2013-9-21,69,52,39,32,25,20,61,38,17,30.23,30.08,11,3,12,0.00
2013-9-22,54,46,37,43,34,26,89,64,36,30.08,29.87,17,1,23,0.00
2013-9-23,55,41,34,36,29,20,91,67,29,30.26,29.90,15,2,15,0.00
2013-9-24,68,43,28,25,17,7,58,39,15,30.29,30.11,13,2,13,0.00
2013-9-25,67,51,34,21,15,9,48,27,15,30.11,29.87,22,5,28,0.00
2013-9-26,64,54,45,17,12,6,22,19,16,29.96,29.90,28,9,29,0.00
2013-9-27,54,41,32,38,25,11,91,58,21,30.14,29.90,22,4,25,0.00
2013-9-28,62,39,24,26,18,10,63,44,24,30.29,30.14,9,2,10,0.00
2013-9-29,67,44,28,18,14,11,53,34,15,30.29,30.17,13,2,13,0.00
2013-9-30,71,49,34,25,17,11,44,29,17,30.23,30.11,14,2,15,0.00
2013-10-1,76,50,34,26,20,15,52,33,15,30.20,30.11,9,3,11,0.00
2013-10-2,72,47,33,20,14,9,41,29,14,30.20,30.05,10,4,10,0.00
2013-10-3,62,48,35,23,14,8,41,27,16,30.11,29.87,21,5,25,0.00
2013-10-4,45,32,26,24,10,0,71,41,21,30.20,29.87,25,4,25,0.00
2013-10-5,56,41,25,12,6,-3,42,23,17,30.35,30.23,12,2,12,0.00
2013-10-6,68,39,23,19,6,-3,39,26,15,30.37,30.29,6,1,9,0.00
2013-10-7,72,45,29,24,15,10,46,32,16,30.35,30.20,0,0,0,0.00
2013-10-8,65,48,35,17,12,7,31,23,15,30.20,30.02,17,2,23,0.00
2013-10-9,57,44,32,25,14,10,53,32,17,30.05,29.99,24,5,27,0.00
2013-10-10,41,36,29,33,28,21,88,74,51,30.05,29.84,19,4,24,0.00
2013-10-11,44,34,29,26,19,14,77,56,33,30.14,29.96,11,2,12,0.00
2013-10-12,54,35,23,18,12,7,60,41,18,30.20,30.11,12,3,13,0.00
2013-10-13,57,43,33,27,19,13,62,40,22,30.20,30.02,26,5,26,0.00
2013-10-14,46,36,30,24,15,10,65,43,29,30.17,30.02,17,3,20,0.00
2013-10-15,46,32,22,19,11,6,56,43,22,30.17,30.08,12,3,12,0.00
2013-10-16,48,34,26,18,13,6,61,44,22,30.20,30.08,13,2,14,0.00
2013-10-17,51,32,19,10,5,0,47,33,19,30.17,30.05,14,2,14,0.00
2013-10-18,45,33,26,15,7,-1,54,35,20,30.23,30.05,14,2,14,0.00
2013-10-19,54,34,21,13,5,-2,46,31,18,30.23,30.14,13,3,15,0.00
2013-10-20,50,35,25,11,7,4,42,31,19,30.17,30.02,20,2,20,0.00
2013-10-21,53,36,27,11,7,-1,44,30,18,30.29,30.11,11,2,14,0.00
2013-10-22,65,38,24,17,8,0,43,29,15,30.32,30.23,14,3,15,0.00
2013-10-23,38,29,26,12,10,8,48,44,32,30.29,30.26,9,5,10,0.00
2013-10-24,62,41,28,17,12,8,45,32,16,30.29,30.20,13,4,14,0.00
2013-10-25,48,39,36,29,21,11,65,48,33,30.32,30.26,12,1,14,0.00
2013-10-26,51,39,31,28,22,16,74,52,27,30.37,30.29,9,2,10,0.00
2013-10-27,56,39,28,20,16,11,67,42,20,30.32,30.02,13,3,13,0.00
2013-10-28,53,43,38,17,12,5,41,29,18,30.02,29.96,27,9,27,0.00
2013-10-29,43,37,29,28,16,4,81,45,20,30.02,29.93,26,8,27,0.00
2013-10-30,32,25,18,24,15,7,80,66,44,30.02,29.93,12,2,16,0.00
2013-10-31,34,27,21,24,18,14,80,71,47,30.11,29.99,14,2,14,0.00
2013-11-1,43,30,23,22,16,9,76,57,33,30.32,30.11,17,3,17,0.00
2013-11-2,52,30,18,24,12,5,58,46,29,30.32,30.08,12,3,13,0.00
2013-11-3,49,37,26,15,10,1,47,33,21,30.08,29.84,24,4,24,0.00
2013-11-4,41,31,21,20,10,4,60,43,23,29.99,29.90,16,3,16,0.00
2013-11-5,31,25,11,19,10,-7,63,54,37,30.23,29.90,11,2,13,0.00
2013-11-6,41,29,11,16,10,-5,54,46,31,30.40,30.29,12,2,17,0.00
2013-11-7,49,28,17,23,11,5,58,49,31,30.43,30.23,12,2,12,0.00
2013-11-8,53,35,23,12,8,4,47,33,18,30.23,30.11,14,2,17,0.00
2013-11-9,57,35,24,16,9,5,45,35,20,30.32,30.20,10,3,13,0.00
2013-11-10,56,34,23,13,8,4,46,35,17,30.35,30.26,11,2,13,0.00
2013-11-11,56,35,24,12,7,4,44,33,17,30.46,30.32,10,3,10,0.00
2013-11-12,29,26,23,8,6,4,49,43,34,30.52,30.43,10,4,10,0.00
2013-11-13,50,35,23,13,7,4,48,33,19,30.46,30.17,11,3,13,0.00
2013-11-14,50,34,27,13,7,-1,46,32,19,30.17,29.96,9,1,11,0.00
2013-11-15,43,33,24,24,10,-2,76,40,23,29.96,29.75,19,3,21,0.00
2013-11-16,35,30,24,24,16,10,75,56,40,29.81,29.72,13,3,22,0.00
2013-11-17,42,33,22,16,13,6,54,43,30,30.20,29.81,17,4,18,0.00
2013-11-18,44,26,14,16,7,1,55,46,31,30.29,30.17,10,2,13,0.00
2013-11-19,39,27,17,16,9,3,58,48,33,30.20,29.96,10,1,13,0.00
2013-11-20,40,31,21,25,16,10,73,56,34,30.02,29.90,10,1,13,0.00
2013-11-21,37,32,27,27,24,18,79,73,49,30.17,29.96,13,1,13,0.00
2013-11-22,33,32,28,28,27,24,85,83,79,30.23,30.14,5,0,5,0.00
2013-11-23,34,30,26,29,26,22,89,84,81,30.26,30.17,11,1,11,0.00
2013-11-24,32,28,22,28,24,19,90,87,83,30.17,29.99,8,1,10,0.00
2013-11-25,36,26,19,28,20,13,87,79,71,30.26,29.99,8,0,9,0.00
2013-11-26,35,21,12,24,12,5,76,68,60,30.32,30.26,9,3,10,0.00
2013-11-27,35,21,10,21,10,1,69,64,57,30.32,30.17,10,2,11,0.00
2013-11-28,36,22,14,22,12,6,71,64,53,30.20,30.14,8,1,9,0.00
2013-11-29,36,23,14,20,11,3,62,58,50,30.26,30.20,11,2,11,0.00
2013-11-30,36,22,12,20,9,1,62,58,51,30.29,30.20,10,2,11,0.00
2013-12-1,39,24,11,12,6,0,62,48,30,30.26,30.17,12,2,13,0.00
2013-12-2,42,34,22,14,9,4,58,37,23,30.17,29.87,17,4,24,0.00
2013-12-3,40,35,31,24,12,6,76,40,29,29.87,29.61,17,4,17,0.00
2013-12-4,32,22,2,23,14,-5,80,70,45,29.84,29.52,25,4,28,0.00
2013-12-5,11,-1,-10,4,-8,-16,73,73,73,29.84,29.75,9,1,10,0.00
2013-12-6,13,0,-8,6,-6,-15,73,73,73,29.99,29.81,13,1,13,0.00
2013-12-7,16,9,0,9,2,-6,74,72,62,29.96,29.67,16,3,24,0.00
2013-12-8,15,9,-8,9,1,-16,74,70,65,29.90,29.64,22,3,22,0.00
2013-12-9,11,-4,-14,2,-13,-22,66,66,66,30.20,29.87,12,3,12,0.00
2013-12-10,13,-3,-12,4,-12,-20,66,66,66,30.23,30.11,12,2,15,0.00
2013-12-11,24,8,-2,15,0,-11,76,68,60,30.40,30.20,11,1,12,0.00
2013-12-12,24,9,-1,16,2,-7,77,74,66,30.40,30.11,9,1,11,0.00
2013-12-13,28,14,4,18,7,-3,75,72,63,30.14,29.99,13,2,14,0.00
2013-12-14,29,15,4,16,5,-4,70,64,56,30.35,30.14,13,1,13,0.00
2013-12-15,37,20,8,23,9,-1,65,60,53,30.37,30.29,10,1,10,0.00
2013-12-16,40,23,13,22,9,2,63,55,41,30.40,30.32,13,2,14,0.00
2013-12-17,35,21,12,16,4,-4,55,48,43,30.43,30.32,10,2,10,0.00
2013-12-18,34,22,12,14,6,-1,57,51,43,30.32,29.96,10,1,10,0.00
2013-12-19,37,26,16,14,8,4,61,47,33,29.99,29.78,12,2,15,0.00
2013-12-20,33,25,19,14,10,3,62,52,37,29.81,29.72,8,1,10,0.00
2013-12-21,26,16,6,8,0,-8,57,48,42,29.87,29.64,14,2,14,0.00
2013-12-22,26,14,2,1,-7,-14,46,40,29,30.17,29.87,12,1,14,0.00
2013-12-23,33,18,8,7,-1,-8,51,43,33,30.32,30.17,13,1,13,0.00
2013-12-24,36,22,12,13,3,-7,56,44,30,30.29,30.11,26,2,26,0.00
2013-12-25,29,13,2,2,-8,-16,42,38,31,30.35,30.26,10,2,10,0.00
2013-12-26,32,15,3,5,-7,-18,47,36,30,30.35,30.26,10,1,10,0.00
2013-12-27,33,17,7,8,-1,-8,57,45,34,30.35,30.20,10,1,10,0.00
2013-12-28,29,19,10,10,2,-6,59,47,40,30.20,29.96,10,1,10,0.00
2013-12-29,33,20,10,6,0,-13,52,41,30,30.11,29.96,11,1,14,0.00
2013-12-30,37,19,7,8,-5,-16,46,34,27,30.23,30.11,12,1,13,0.00
2013-12-31,39,24,10,11,2,-10,53,39,31,30.23,30.11,12,1,17,0.00
2014-1-1,34,26,13,16,3,-11,63,38,22,30.26,30.05,16,3,20,0.00
2014-1-2,35,18,7,5,-7,-15,40,33,25,30.29,30.17,10,2,13,0.00